513P/Broughton (2025)

Japanese version
Home page
Updated on March 23, 2026

---------------------------------------------------------------------

* Profile

Designation 513P/2025 S1
Recovery Date September 24, 2025
Magnitude 19.6 mag
Recoverer G. J. Leonard (Mount Lemmon Survey)

* Pictures

* Orbital Elements

                    Epoch = 2025 June 14.0 TT
     T = 2025 June 13.73532 TT        Peri. = 304.85715
     e = 0.5516916                    Node  =  56.99771 2000.0
     q = 3.2535746 AU                 Incl. =  21.38525
       a =  7.2574472 AU   n = 0.05041134   P =  19.55 years

* Magnitudes Graph

        m1 = 3.5 + 5 log d + 25.0 log r

---------------------------------------------------------------------

The orbital elements are printed on CBET 5616.
The magnitudes graphs are made with Comet for Windows.

---------------------------------------------------------------------

Copyright(C) Seiichi Yoshida (comet@aerith.net). All rights reserved.